{"data":{"norad_id":48686,"intl_designator":"2021-044BA","name":"STARLINK-2629","alt_names":[],"object_type":"PAYLOAD","status":"ACTIVE","operator":null,"country":"US","launch_date":"2021-05-26","launch_site_code":"AFETR","launch_vehicle":null,"mission":null,"orbit_class":"UNKNOWN","rcs_meters":null,"size_class":null,"mass_kg":null,"dimensions":null,"purposes":["comms"],"wikipedia_slug":null,"has_3d_model":false,"image_url":null,"decayed_at":null,"tle_current":{"epoch":"2026-09-19T10:40:43.242816Z","epoch_age_seconds":113043,"freshness":"FRESH","line1":"1 48686U 21044BA  26262.44494494 -.00001318  00000+0 -30713-4 0  9995","line2":"2 48686  53.1588 253.6699 0001235  99.3295 260.7846 15.31707588294049","mean_motion":15.31707588,"eccentricity":0.0001235,"inclination_deg":53.1588,"raan_deg":253.6699,"arg_perigee_deg":99.3295,"mean_anomaly_deg":260.7846,"bstar":-3.0713e-5,"rev_number":29404,"period_min":94.012722224629,"perigee_km":469.87154237045,"apogee_km":471.5632094013,"semimajor_km":6848.8543758859,"source":"CELESTRAK","updated_at":"2026-09-20T09:00:39.244297Z"}}}